{"data":{"norad_id":67894,"epoch":"2026-09-19T06:53:34.343520Z","epoch_age_seconds":168004,"freshness":"FRESH","line1":"1 67894U 26035R   26262.28720305  .00013736  00000+0  42684-3 0  9991","line2":"2 67894  97.2843 194.1000 0003664  90.5026 269.6636 15.33453531 33653","mean_motion":15.33453531,"eccentricity":0.0003664,"inclination_deg":97.2843,"raan_deg":194.1,"arg_perigee_deg":90.5026,"mean_anomaly_deg":269.6636,"bstar":0.00042684,"rev_number":3365,"period_min":93.905682232245,"perigee_km":463.01027722596,"apogee_km":468.02530745779,"semimajor_km":6843.6547923419,"source":"CELESTRAK","updated_at":"2026-09-20T09:00:43.698664Z"}}